Flag Weather past 2 weeks in Olympia, Washington, U.S.A.

Now
42 °F

Mostly cloudy.


Feels Like: 38 °F
Forecast: 23 / 38 °F
Wind: 6 mph from Southwest

Location: Olympia Airport

Current Time: Nov 28, 2014 at 6:57:21 PM

Latest Report: Nov 28, 2014 at 5:54 PM


Visibility: 10 mi

Pressure: 29.51 "Hg

Humidity: 85%

Dew point: 38 °F

Location of OlympiaLocation

Historic Weather in Olympia — Graph

°F

Olympia temperature yesterday

Maximum temperature yesterday: 54 °F (at 12:54 AM)
Minimum temperature yesterday: 52 °F (at 2:54 AM)
Average temperature yesterday: 53 °F

Past Weeks' High & Low Weather Summary

 TemperatureHumidityPressure
High58 °F (Nov 25, 10:54 AM)100% (Nov 18, 2:54 AM)30.53 "Hg (Nov 18, 2:54 AM)
Low16 °F (Nov 16, 6:54 AM)25% (Nov 15, 1:54 PM)29.32 "Hg (Nov 21, 4:54 PM)
Average42 °F83%30.07 "Hg
* Reported Nov 13 4:54 PM — Nov 28 4:54 PM, Olympia, Weather by CustomWeather, © 2014

Note: Actual official high and low records may vary slightly from our data, if they occured in-between our weather recording intervals... More about our weather records

Advertising

Olympia weather history for previous 24 hours

 ConditionsComfort  
Time TempWeatherWind HumidityBarometerVisibility
4:54 PM
Nov 28
43 °FLow clouds.6 mph86%29.49 "Hg10 mi
3:54 PM45 °FCloudy.3 mph90%29.49 "Hg10 mi
2:54 PM46 °FFog.6 mph86%29.46 "Hg6 mi
1:54 PM47 °FLight rain. Fog.No wind90%29.46 "Hg4 mi
12:54 PM49 °FLight rain. Fog.No wind93%29.47 "Hg2 mi
12:01 PM51 °FLight rain. Fog.8 mph96%29.47 "Hg2 mi
10:54 AM55 °FLight rain. Mostly cloudy.12 mph87%29.47 "Hg7 mi
9:54 AM54 °FCloudy.16 mph90%29.50 "Hg10 mi
8:54 AM53 °FMore clouds than sun.14 mph89%29.52 "Hg10 mi
7:54 AM53 °FMostly cloudy.13 mph89%29.53 "Hg10 mi
6:54 AM52 °FLow clouds.14 mph93%29.55 "Hg10 mi
5:54 AM52 °FOvercast.14 mph93%29.58 "Hg10 mi
4:54 AM52 °FMostly cloudy.13 mph93%29.61 "Hg10 mi
3:54 AM52 °FLight rain. Overcast.14 mph93%29.64 "Hg8 mi
2:54 AM53 °FMostly cloudy.14 mph89%29.67 "Hg10 mi
1:54 AM52 °FMostly cloudy.14 mph93%29.68 "Hg10 mi
12:54 AM52 °FMostly cloudy.16 mph93%29.70 "Hg10 mi
11:54 PM
Nov 27
53 °FMostly cloudy.16 mph89%29.70 "Hg10 mi
10:54 PM53 °FOvercast.15 mph89%29.72 "Hg10 mi
9:54 PM53 °FOvercast.18 mph89%29.74 "Hg10 mi
8:54 PM53 °FLight rain. Fog.15 mph93%29.75 "Hg3 mi
7:54 PM53 °FOvercast.17 mph89%29.77 "Hg10 mi
6:54 PM53 °FOvercast.12 mph93%29.79 "Hg10 mi
Weather by CustomWeather, © 2014

See weather overviewHow to use our weather pages